Bellefonte, PA

7:54 AM EST on January 18, 2017 (GMT -0500)
University Park

Weather History for KUNV - January, 2014

Change the Weather History Date:

Friday, January 24, 2014

  Actual Average Record
Temperature  
Mean Temperature 12 °F -  
Max Temperature 19 °F 35 °F 63 °F (1967)
Min Temperature 5 °F 19 °F -15 °F (1963)
Degree Days  
Heating Degree Days 53    
Moisture  
Dew Point -6 °F    
Average Humidity 47    
Maximum Humidity 66    
Minimum Humidity 24    
Precipitation  
Precipitation 0.00 in - - ()
Sea Level Pressure  
Sea Level Pressure 30.19 in    
Wind  
Wind Speed 11 mph (WSW)    
Max Wind Speed 17 mph    
Max Gust Speed 20 mph    
Visibility 10 miles    
Events Snow    
Averages and records for this station are not official NWS values.
T = Trace of Precipitation, MM = Missing Value Source: NWS Daily Summary

Daily Weather History Graph

Daily Weather History Graph

Search for Another Location

Airport or City:

Trip Planner

Search our weather history database for the weather conditions in past years. The results will help you decide how hot, cold, wet, or windy it might be!

Date:

Astronomy

Jan. 24, 2014 Rise Set
Actual Time 7:28 AM EST 5:18 PM EST
Civil Twilight 6:58 AM EST 5:48 PM EST
Nautical Twilight 6:25 AM EST 6:21 PM EST
Astronomical Twilight 5:53 AM EST 6:54 PM EST
Moon 12:53 AM EST (1/24) 11:36 AM EST (1/24)
Length of Visible Light 10h 49m
Length of Day
9h 50m
Last Quarter, 45% of the Moon is Illuminated
Jan 24
Last Quarter
Jan 30
New
Feb 6
First Quarter
Feb 14
Full
Feb 22
Last Quarter

Hourly Weather History & Observations

Time (EST) Temp. Windchill Dew Point Humidity Pressure Visibility Wind Dir Wind Speed Gust Speed Precip Events Conditions
12:15 AM 9.3 °F -6.8 °F -1.3 °F 62% 30.29 in 7.0 mi West 13.8 mph 19.6 mph N/A   Overcast
12:35 AM 8.6 °F -7.7 °F -2.2 °F 62% 30.30 in 10.0 mi West 13.8 mph - N/A   Overcast
12:55 AM 8.4 °F -6.5 °F -2.2 °F 62% 30.30 in 10.0 mi WSW 11.5 mph - N/A   Overcast
1:15 AM 8.4 °F -4.9 °F -2.2 °F 62% 30.31 in 10.0 mi West 9.2 mph - N/A Snow Light Snow
1:35 AM 8.4 °F -4.9 °F -2.4 °F 62% 30.31 in 10.0 mi WSW 9.2 mph 16.1 mph N/A   Overcast
1:55 AM 8.2 °F -6.8 °F -2.9 °F 60% 30.31 in 10.0 mi WSW 11.5 mph - N/A   Overcast
2:15 AM 7.7 °F -6.6 °F -3.1 °F 61% 30.32 in 10.0 mi WSW 10.4 mph - N/A   Scattered Clouds
2:35 AM 7.7 °F -6.6 °F -3.3 °F 61% 30.32 in 10.0 mi WSW 10.4 mph - N/A   Clear
2:55 AM 7.2 °F -5.4 °F -4.0 °F 60% 30.33 in 10.0 mi WSW 8.1 mph - N/A   Scattered Clouds
3:15 AM 7.3 °F -7.1 °F -4.2 °F 59% 30.33 in 10.0 mi West 10.4 mph - N/A   Mostly Cloudy
3:35 AM 7.2 °F -7.3 °F -4.5 °F 59% 30.33 in 10.0 mi West 10.4 mph - N/A   Scattered Clouds
3:55 AM 6.8 °F -6.9 °F -4.4 °F 60% 30.34 in 10.0 mi West 9.2 mph - N/A   Clear
4:15 AM 6.6 °F -8.0 °F -4.5 °F 60% 30.34 in 10.0 mi West 10.4 mph - N/A   Scattered Clouds
4:35 AM 6.1 °F -9.5 °F -4.9 °F 61% 30.34 in 10.0 mi WSW 11.5 mph - N/A   Scattered Clouds
4:55 AM 6.4 °F -8.2 °F -4.9 °F 60% 30.36 in 10.0 mi WSW 10.4 mph - N/A   Scattered Clouds
5:15 AM 6.3 °F -6.5 °F -4.9 °F 60% 30.36 in 10.0 mi West 8.1 mph - N/A Snow Light Snow
5:35 AM 5.9 °F -8.9 °F -5.3 °F 60% 30.36 in 10.0 mi West 10.4 mph - N/A Snow Light Snow
5:53 AM 5.0 °F -8.1 °F -5.8 °F 61% 30.36 in 10.0 mi West 8.1 mph - N/A   Clear
6:53 AM 5.0 °F -10.0 °F -5.8 °F 61% 30.37 in 10.0 mi West 10.4 mph - N/A   Clear
7:53 AM 5.0 °F -10.0 °F -4.0 °F 66% 30.36 in 10.0 mi WSW 10.4 mph - N/A   Scattered Clouds
8:53 AM 8.6 °F -7.7 °F -4.0 °F 57% 30.36 in 10.0 mi West 13.8 mph - N/A   Scattered Clouds
10:53 AM 12.2 °F -1.8 °F -4.0 °F 48% 30.33 in 10.0 mi WSW 11.5 mph - N/A   Scattered Clouds
11:53 AM 14.0 °F 0.5 °F -4.0 °F 45% 30.28 in 10.0 mi WSW 11.5 mph - N/A   Scattered Clouds
2:53 PM 17.6 °F 2.2 °F -4.0 °F 38% 30.16 in 10.0 mi SSW 17.3 mph - N/A   Clear
2:58 PM 17.6 °F 2.2 °F -4.0 °F 38% 30.16 in 10.0 mi SSW 17.3 mph - N/A   Clear
3:50 PM 17.6 °F 2.2 °F -5.8 °F 35% 30.13 in 10.0 mi SSW 17.3 mph - N/A   Mostly Cloudy
4:53 PM 17.6 °F 4.3 °F -9.4 °F 30% 30.10 in 10.0 mi WSW 12.7 mph - N/A   Mostly Cloudy
5:53 PM 17.6 °F 6.4 °F -5.8 °F 35% 30.07 in 10.0 mi SSW 9.2 mph - N/A   Mostly Cloudy
6:53 PM 17.6 °F 5.7 °F -9.4 °F 30% 30.05 in 10.0 mi SSW 10.4 mph - N/A   Mostly Cloudy
7:53 PM 17.6 °F 7.3 °F -13.0 °F 25% 30.00 in 10.0 mi SW 8.1 mph - N/A   Clear
8:53 PM 17.6 °F 5.0 °F -13.0 °F 25% 29.96 in 10.0 mi SW 11.5 mph - N/A   Mostly Cloudy
9:55 PM 18.5 °F 6.8 °F -13.4 °F 24% 29.91 in 10.0 mi SSW 10.4 mph 17.3 mph N/A   Scattered Clouds
10:15 PM 18.5 °F 6.1 °F -12.3 °F 25% 29.90 in 10.0 mi SSW 11.5 mph - N/A   Clear
10:35 PM 18.5 °F 8.4 °F -11.4 °F 26% 29.88 in 10.0 mi SSW 8.1 mph - N/A   Clear
10:55 PM 18.9 °F 7.2 °F -10.8 °F 26% 29.86 in 10.0 mi SSW 10.4 mph - N/A   Clear
11:15 PM 19.2 °F 7.7 °F -11.2 °F 26% 29.85 in 10.0 mi SSW 10.4 mph 16.1 mph N/A   Scattered Clouds
11:35 PM 19.2 °F 6.4 °F -11.0 °F 26% 29.83 in 10.0 mi SSW 12.7 mph - N/A   Clear
11:55 PM 18.9 °F 8.8 °F -10.7 °F 27% 29.82 in 10.0 mi SSW 8.1 mph - N/A   Clear